Change the Weather History Date:

Monday, March 3, 2014

  Actual Average Record
Temperature  
Mean Temperature 11 °F -  
Max Temperature 17 °F 35 °F 52 °F (2008)
Min Temperature 5 °F 18 °F 1 °F (2003)
Degree Days  
Heating Degree Days 54    
Moisture  
Dew Point -4 °F    
Average Humidity 49    
Maximum Humidity 61    
Minimum Humidity 34    
Precipitation  
Precipitation 0.00 in - - ()
Sea Level Pressure  
Sea Level Pressure 30.20 in    
Wind  
Wind Speed 9 mph (West)    
Max Wind Speed 14 mph    
Max Gust Speed 24 mph    
Visibility 10 miles    
Events      
Averages and records for this station are not official NWS values.
T = Trace of Precipitation, MM = Missing Value Source: NWS Daily Summary

Daily Weather History Graph

Daily Weather History Graph

Search for Another Location

Airport or City:

Trip Planner

Search our weather history database for the weather conditions in past years. The results will help you decide how hot, cold, wet, or windy it might be!

Date:

Astronomy

Mar. 03, 2014 Rise Set
Actual Time 6:25 AM EST 5:44 PM EST
Civil Twilight 5:56 AM EST 6:13 PM EST
Nautical Twilight 5:24 AM EST 6:45 PM EST
Astronomical Twilight 4:51 AM EST 7:18 PM EST
Moon 7:27 AM EST (3/3) 8:49 PM EST (3/3)
Length of Visible Light 12h 16m
Length of Day
11h 19m
Waxing Crescent, 8% of the Moon is Illuminated
Mar 3
Waxing Crescent
Mar 8
First Quarter
Mar 16
Full
Mar 23
Last Quarter
Mar 30
New

Hourly Weather History & Observations

Time (EST) Temp. Windchill Dew Point Humidity Pressure Visibility Wind Dir Wind Speed Gust Speed Precip Events Conditions
12:52 AM 15.1 °F 1.1 °F 1.9 °F 56% 30.08 in 10.0 mi West 12.7 mph - N/A   Clear
1:52 AM 15.1 °F 4.2 °F 1.0 °F 54% 30.09 in 10.0 mi West 8.1 mph 18.4 mph N/A   Clear
2:52 AM 14.0 °F 2.9 °F 1.0 °F 56% 30.08 in 10.0 mi West 8.1 mph - N/A   Mostly Cloudy
3:52 AM 12.9 °F 2.6 °F -0.0 °F 56% 30.10 in 10.0 mi West 6.9 mph 17.3 mph N/A   Mostly Cloudy
4:52 AM 12.9 °F -2.2 °F -2.0 °F 51% 30.11 in 10.0 mi West 13.8 mph 24.2 mph N/A   Scattered Clouds
5:52 AM 10.9 °F -2.6 °F -2.9 °F 54% 30.14 in 10.0 mi West 10.4 mph - N/A   Partly Cloudy
6:52 AM 10.0 °F -4.5 °F -4.0 °F 53% 30.16 in 10.0 mi West 11.5 mph - N/A   Clear
7:52 AM 10.9 °F 1.4 °F -4.0 °F 51% 30.17 in 10.0 mi West 5.8 mph - N/A   Clear
8:52 AM 10.9 °F -0.8 °F -2.9 °F 54% 30.18 in 10.0 mi West 8.1 mph - N/A   Clear
9:52 AM 10.9 °F -0.8 °F -4.0 °F 51% 30.20 in 10.0 mi NNW 8.1 mph - N/A   Clear
10:52 AM 10.9 °F -0.8 °F -4.0 °F 51% 30.22 in 10.0 mi NNW 8.1 mph - N/A   Clear
11:52 AM 12.0 °F 0.5 °F -6.0 °F 44% 30.22 in 10.0 mi NW 8.1 mph 18.4 mph N/A   Clear
12:52 PM 14.0 °F 3.9 °F -4.0 °F 45% 30.20 in 10.0 mi Variable 6.9 mph 17.3 mph N/A   Clear
1:52 PM 14.0 °F 1.2 °F -5.1 °F 43% 30.21 in 10.0 mi NNW 10.4 mph - N/A   Clear
2:52 PM 15.1 °F 5.2 °F -5.1 °F 41% 30.22 in 10.0 mi West 6.9 mph - N/A   Clear
3:52 PM 17.1 °F 10.0 °F -7.1 °F 34% 30.22 in 10.0 mi Variable 4.6 mph - N/A   Clear
4:52 PM 17.1 °F 8.7 °F -7.1 °F 34% 30.23 in 10.0 mi Variable 5.8 mph - N/A   Clear
5:52 PM 14.0 °F 5.1 °F -6.0 °F 41% 30.25 in 10.0 mi West 5.8 mph - N/A   Clear
7:52 PM 10.9 °F 0.2 °F -5.1 °F 49% 30.30 in 10.0 mi West 6.9 mph - N/A   Clear
8:52 PM 10.0 °F 0.4 °F -6.0 °F 48% 30.32 in 10.0 mi WSW 5.8 mph - N/A   Clear
9:52 PM 9.0 °F -0.9 °F -6.0 °F 51% 30.33 in 10.0 mi WSW 5.8 mph - N/A   Clear
10:52 PM 5.0 °F - -6.0 °F 61% 30.34 in 10.0 mi Calm Calm - N/A   Clear
11:52 PM 5.0 °F -4.1 °F -8.0 °F 55% 30.34 in 10.0 mi WSW 4.6 mph - N/A   Clear